Wind_Speed
33 33 33 34 34 33 30 27 25 24 23 23 22 21 21 20 19 18 16 15 15 14 13 12 12 11 10 9 8 7 6 5 4 3 2 2 1 1 1 2 2 3 3 3 4 4 4 4 4
35 35 36 36 36 34 31 28 27 26 26 25 24 23 22 21 21 20 18 17 16 16 15 14 14 12 11 11 10 9 8 6 5 4 4 3 3 3 3 3 4 4 4 4 5 4 4 4 5
37 37 38 38 37 33 30 29 28 28 28 26 25 25 24 23 22 21 20 19 18 17 17 16 15 14 13 12 11 10 9 8 7 6 5 5 5 4 4 4 5 5 5 5 5 5 5 5 6
38 39 39 39 37 33 32 30 30 30 29 28 27 26 25 24 23 22 21 20 20 19 18 17 16 15 14 13 12 11 10 9 8 7 7 6 6 6 6 6 6 6 6 6 6 6 6 6 7
39 40 41 40 37 34 33 33 33 32 31 30 29 28 27 26 24 24 23 22 22 21 20 19 18 17 16 15 14 13 11 10 9 9 8 8 7 8 7 8 8 7 7 7 7 7 7 8 8
40 41 41 40 37 35 34 34 34 33 33 31 30 29 28 27 26 25 24 24 23 23 22 21 20 19 18 17 16 14 13 12 11 11 10 9 9 9 9 9 8 8 9 9 9 9 9 9 10
41 41 41 39 38 37 36 36 36 35 34 33 32 31 30 29 28 27 26 25 25 24 24 23 22 21 20 19 18 16 15 14 13 13 12 11 11 11 10 10 10 10 10 10 10 10 11 11 11
41 42 42 41 39 38 38 38 38 38 36 35 35 34 32 31 30 29 28 27 26 26 25 24 23 22 22 21 20 18 17 16 15 14 13 13 12 12 12 11 11 11 11 12 12 12 12 13 13
42 42 42 40 40 39 39 40 40 40 39 38 37 35 34 33 32 31 30 29 28 27 27 26 25 24 23 23 22 20 19 18 17 16 15 15 14 14 13 13 13 13 13 13 13 13 14 14 14
43 43 40 40 41 40 40 41 41 41 41 40 39 37 36 35 34 33 31 31 30 29 28 28 27 26 26 25 24 23 22 21 20 18 17 16 16 15 15 15 14 14 14 14 15 15 15 15 15
44 43 41 41 41 41 41 42 43 43 42 41 40 39 38 37 36 35 34 33 32 31 30 30 29 28 27 27 26 25 24 23 22 21 20 19 18 17 17 17 16 16 16 16 16 16 16 16 17
43 42 41 42 42 42 42 43 44 44 42 42 42 41 40 39 38 37 36 35 34 33 32 31 31 30 29 28 27 27 26 25 24 23 22 21 20 20 19 19 18 18 18 18 18 18 18 18 18
41 41 41 42 43 43 43 44 44 44 43 43 42 42 42 41 40 39 38 37 36 35 34 33 33 32 31 30 29 28 27 27 26 25 24 24 23 22 22 21 21 20 20 20 20 20 20 20 20
39 40 41 42 43 44 44 44 44 44 44 44 43 42 43 43 42 41 39 38 37 36 36 35 34 33 32 32 31 30 28 28 27 27 27 26 25 24 24 24 23 23 22 22 22 22 22 22 22
37 38 40 41 41 42 43 45 45 44 45 44 44 43 43 43 43 42 41 40 39 38 37 36 36 35 34 33 33 32 30 29 29 29 28 28 27 26 26 26 25 25 24 24 23 23 23 23 23
35 37 38 38 39 40 43 44 44 44 45 44 44 44 44 44 44 43 42 41 41 40 38 38 37 37 36 35 34 33 32 31 31 30 30 30 29 28 28 27 27 26 26 25 25 25 25 25 25
35 36 37 35 36 38 41 42 42 44 45 45 45 45 45 45 44 44 43 43 42 41 40 39 38 38 37 36 36 35 34 33 32 32 32 31 31 30 29 29 28 28 27 27 27 27 27 27 27
33 34 34 33 33 35 38 40 40 42 43 44 45 45 46 46 46 46 45 44 43 42 41 40 39 39 38 38 37 36 36 35 34 34 33 33 32 32 31 31 30 29 29 29 29 29 29 30 30
32 33 33 32 32 33 36 38 38 39 42 43 44 45 46 46 47 47 46 46 45 44 43 42 41 40 40 39 38 37 37 37 36 35 35 35 34 33 32 32 32 31 30 30 30 31 31 31 32
31 32 32 32 32 33 34 35 36 37 40 42 44 44 45 46 47 48 47 47 46 45 44 43 42 42 41 40 39 39 39 38 37 37 37 36 35 34 34 33 32 32 32 32 32 32 32 33 33
31 32 31 31 31 33 33 34 36 37 38 40 43 44 45 46 47 48 49 48 47 47 46 45 44 43 42 42 41 41 40 39 38 38 38 38 36 36 35 34 34 34 33 33 34 34 33 33 34
30 30 30 31 32 33 34 35 35 37 38 40 42 44 44 45 46 47 48 49 48 48 47 46 46 45 44 44 42 41 40 39 39 39 40 40 39 37 36 36 36 36 36 35 35 35 35 35 35
27 28 29 30 33 34 33 35 34 35 37 39 41 43 44 45 45 46 47 48 49 49 48 47 47 46 45 44 43 42 42 41 40 40 40 40 39 38 37 37 37 37 37 37 37 37 37 36 36
24 26 28 30 31 33 33 33 34 35 35 37 39 41 43 44 45 45 46 48 49 50 50 49 48 47 47 46 45 44 43 43 42 41 40 40 39 39 39 39 39 38 38 38 38 38 38 38 38
23 25 26 28 30 31 31 33 34 33 34 35 37 38 41 43 44 45 46 47 49 50 50 50 49 48 48 47 46 45 45 44 44 42 42 41 40 40 41 40 40 40 39 39 38 38 38 38 39
21 22 25 27 29 30 32 33 32 32 33 34 35 36 38 41 42 44 45 45 47 49 51 51 50 49 48 48 48 47 46 46 45 44 43 42 42 42 42 42 41 41 40 40 39 39 39 39 40
20 22 22 25 28 30 30 31 31 31 32 33 34 35 36 38 40 41 43 44 45 48 50 50 50 50 49 49 49 48 48 48 47 46 45 44 43 43 42 42 42 42 41 41 40 40 41 41 41
19 20 21 23 27 29 30 31 29 30 31 33 34 34 36 37 39 39 41 43 45 46 48 49 51 51 50 50 49 49 49 49 49 48 46 46 45 45 44 43 42 42 42 42 42 42 42 42 43
17 19 21 23 25 27 29 30 28 28 29 31 33 34 35 37 39 38 39 41 43 45 47 48 49 50 50 50 50 50 50 50 49 48 48 47 47 46 45 45 44 44 43 43 43 44 44 44 44
17 18 19 22 24 25 27 27 28 28 28 29 32 34 34 36 38 39 39 40 42 44 45 48 48 49 50 50 50 51 51 50 50 49 48 48 48 47 46 47 46 46 45 45 45 45 45 44 44
Wind_Direction
238 238 238 237 237 237 235 234 235 235 233 233 234 235 235 235 235 233 231 231 231 230 228 226 224 224 222 219 219 218 215 214 215 216 222 221 237 289 311 319 323 329 337 340 343 344 345 345 343
239 238 238 238 238 237 235 235 236 236 234 233 234 235 235 235 235 234 233 231 231 230 229 228 226 226 226 225 224 225 224 224 228 231 236 243 254 272 282 297 303 308 314 320 327 329 329 330 329
239 238 238 238 238 237 237 236 236 235 235 233 234 234 235 235 234 234 234 232 231 230 229 227 227 226 227 228 227 229 231 231 234 237 242 248 256 268 278 286 293 296 298 304 312 318 317 314 316
239 238 238 238 238 238 237 236 235 235 235 234 233 232 233 234 234 235 234 233 232 230 229 228 228 227 228 231 230 231 234 235 236 239 245 250 255 262 273 279 284 287 289 294 302 306 307 306 308
239 238 237 238 237 236 236 235 235 234 235 234 233 232 232 233 234 234 234 233 231 230 229 228 228 229 230 232 233 233 234 236 240 244 246 250 256 262 270 274 277 280 283 287 293 297 299 300 302
238 238 239 238 237 236 235 235 235 234 234 234 233 232 232 232 233 233 232 232 231 231 229 229 229 231 232 233 234 234 236 238 241 246 250 252 255 262 267 270 274 276 279 283 286 288 292 295 298
239 239 240 240 238 236 235 234 235 235 234 234 233 233 232 232 232 232 232 231 230 230 230 229 230 232 233 234 234 235 237 241 244 247 250 253 256 260 264 267 271 275 278 281 284 286 290 294 296
240 240 240 239 238 237 235 235 235 235 234 234 233 233 232 232 232 232 232 231 230 230 230 230 230 233 234 235 234 236 238 241 245 247 250 252 256 259 263 267 270 274 278 281 283 286 289 293 295
240 241 241 240 238 237 235 235 234 234 233 233 234 234 233 233 233 233 232 231 231 231 231 231 231 232 234 235 235 237 239 241 244 246 250 253 256 260 264 265 268 273 278 282 283 286 289 291 293
239 242 242 240 238 237 236 235 234 234 233 233 233 234 233 233 233 233 233 232 232 232 232 232 233 233 234 236 236 238 240 242 244 247 249 252 255 259 263 266 269 273 277 280 282 285 288 290 292
239 241 241 239 238 237 236 235 235 234 234 233 233 233 234 233 232 232 232 232 232 232 232 233 234 234 235 236 238 239 241 243 245 248 250 252 255 258 261 265 269 272 276 280 283 284 286 288 290
238 240 240 239 238 237 236 236 236 235 234 233 232 231 232 232 232 232 232 232 233 233 233 234 235 236 236 237 238 240 242 244 245 247 250 252 255 258 260 265 269 272 275 279 281 283 286 287 288
238 238 239 239 237 237 237 237 236 235 233 232 232 230 230 231 232 232 231 231 232 233 234 235 236 237 237 238 239 241 243 245 246 247 249 252 255 257 260 264 268 271 274 277 279 282 284 285 287
238 238 238 238 238 237 237 237 235 234 233 232 231 230 230 230 231 231 231 232 232 233 234 235 237 238 238 239 240 241 244 246 247 248 249 251 254 256 259 263 267 269 272 275 277 279 282 283 285
237 237 237 238 237 237 237 236 235 233 232 231 230 230 229 230 230 231 232 232 232 233 234 236 237 238 239 240 240 241 243 245 247 248 250 252 253 256 259 263 265 267 270 272 275 278 279 282 284
236 237 237 236 237 236 237 236 235 234 232 231 230 230 230 230 230 230 232 233 233 233 234 236 237 238 239 240 241 242 243 245 247 248 250 252 253 256 259 262 264 266 268 271 273 275 277 280 283
236 237 237 237 237 236 237 237 235 235 233 231 230 229 229 230 230 230 231 233 234 234 235 236 237 239 239 241 242 243 244 245 247 248 250 252 254 256 259 261 263 265 267 270 272 274 276 279 282
238 238 238 237 238 238 237 236 235 235 234 232 230 229 229 229 229 230 230 231 233 234 235 235 237 238 239 241 243 243 244 246 248 248 249 251 253 256 258 261 263 265 267 269 271 274 276 279 280
240 239 238 238 238 238 237 236 235 234 234 232 230 229 229 230 230 230 230 231 233 234 235 236 237 238 240 241 243 244 245 246 248 249 250 251 253 254 257 260 262 264 267 270 272 274 276 278 279
238 238 238 237 237 238 238 237 234 234 234 232 230 230 229 229 230 231 231 231 233 234 235 236 237 238 240 241 243 244 245 246 248 250 250 251 252 255 257 259 261 264 267 270 272 274 277 279 280
238 238 238 238 236 238 238 236 235 236 236 234 232 231 230 230 231 231 232 232 233 234 235 237 237 238 240 241 243 244 245 247 249 250 252 252 254 256 257 259 261 263 266 269 272 274 277 279 280
237 237 239 239 238 238 237 239 237 236 237 236 234 232 231 231 231 232 232 233 234 235 236 237 238 238 240 241 243 244 245 247 249 251 252 252 254 255 257 259 261 263 266 269 272 274 277 278 279
240 239 240 240 241 241 240 243 242 240 238 237 236 234 233 231 232 232 232 233 233 234 235 237 238 239 240 241 242 243 245 247 249 251 252 253 253 254 256 259 261 264 266 269 271 274 276 277 278
239 239 241 243 243 243 243 246 245 243 241 239 238 237 235 233 233 233 233 233 234 235 236 237 238 239 240 241 242 243 245 247 249 251 252 252 254 255 257 258 261 263 266 268 271 273 275 276 278
240 240 242 244 244 246 245 248 247 245 242 241 241 239 237 236 234 233 234 235 235 235 235 236 238 239 240 242 243 245 246 247 248 250 252 252 254 256 258 259 261 263 265 268 270 272 274 276 278
241 239 242 245 246 245 246 248 246 246 243 243 242 239 239 237 236 235 234 235 236 236 236 237 238 239 241 242 243 245 246 247 248 250 252 253 254 256 258 260 261 263 265 267 269 271 273 275 277
241 240 244 250 250 250 248 247 247 245 245 243 240 239 239 237 237 236 235 236 236 236 236 237 239 239 241 242 243 244 245 247 248 249 251 253 255 256 259 260 262 263 265 266 268 271 273 275 277
247 244 249 253 255 256 253 250 250 248 246 244 241 240 240 239 237 237 237 237 238 238 237 238 239 239 240 241 243 244 245 247 248 250 251 253 255 257 258 260 261 263 264 267 269 271 273 275 277
251 246 250 254 257 261 262 257 254 252 248 245 242 242 242 240 239 239 240 240 239 239 238 238 239 240 241 242 243 243 245 247 248 250 252 253 255 257 257 258 260 263 265 267 269 271 273 275 277
255 252 253 255 256 262 264 261 256 253 251 250 247 245 245 244 242 243 243 242 241 241 240 239 240 241 242 243 243 243 244 246 248 249 251 253 254 256 256 258 260 263 266 268 270 271 274 275 276
Height
5810 5813 5816 5818 5821 5824 5828 5832 5835 5838 5840 5842 5844 5846 5849 5851 5854 5857 5858 5858 5859 5861 5863 5864 5865 5867 5868 5869 5871 5871 5872 5873 5874 5874 5875 5876 5876 5877 5877 5878 5878 5879 5879 5879 5879 5879 5879 5879 5879
5804 5807 5810 5812 5814 5818 5824 5828 5831 5833 5835 5838 5840 5843 5845 5847 5849 5852 5853 5855 5857 5859 5860 5862 5864 5865 5867 5868 5869 5870 5871 5872 5873 5873 5874 5875 5876 5876 5877 5877 5878 5878 5878 5878 5878 5879 5878 5878 5878
5796 5799 5803 5804 5808 5814 5820 5824 5826 5828 5830 5833 5836 5838 5841 5844 5846 5848 5850 5852 5854 5856 5858 5860 5861 5863 5865 5866 5867 5868 5869 5870 5871 5872 5873 5874 5875 5875 5876 5876 5877 5877 5877 5877 5878 5878 5878 5877 5877
5788 5792 5794 5798 5802 5810 5814 5818 5820 5823 5826 5829 5832 5834 5837 5840 5842 5845 5847 5849 5851 5853 5855 5857 5859 5861 5862 5864 5865 5867 5868 5869 5870 5871 5872 5872 5873 5874 5874 5875 5875 5876 5876 5876 5876 5876 5876 5876 5876
5780 5783 5786 5790 5797 5804 5808 5811 5814 5817 5820 5824 5827 5830 5833 5836 5838 5841 5843 5845 5848 5850 5852 5854 5856 5858 5860 5862 5863 5864 5866 5867 5868 5869 5870 5871 5871 5872 5873 5873 5874 5874 5874 5875 5875 5875 5875 5875 5874
5771 5775 5779 5784 5791 5797 5801 5804 5807 5811 5815 5818 5822 5825 5828 5831 5834 5836 5839 5841 5844 5846 5849 5851 5853 5855 5857 5859 5860 5862 5863 5864 5866 5867 5868 5869 5869 5870 5871 5871 5872 5872 5872 5873 5873 5873 5873 5872 5872
5764 5767 5771 5778 5784 5789 5794 5797 5801 5805 5809 5813 5816 5819 5822 5826 5829 5832 5834 5837 5840 5842 5845 5847 5850 5852 5854 5856 5857 5859 5860 5862 5863 5864 5865 5866 5867 5868 5869 5869 5870 5870 5870 5870 5870 5870 5870 5870 5870
5755 5759 5763 5769 5776 5782 5786 5790 5793 5797 5802 5806 5809 5813 5817 5821 5824 5826 5829 5832 5835 5838 5841 5843 5846 5848 5850 5852 5854 5856 5857 5859 5860 5861 5862 5863 5864 5865 5866 5867 5867 5867 5868 5868 5868 5868 5868 5868 5867
5746 5751 5755 5762 5768 5773 5777 5781 5786 5790 5794 5798 5802 5806 5811 5814 5818 5821 5824 5827 5830 5833 5836 5839 5841 5844 5846 5848 5850 5852 5854 5856 5857 5858 5859 5861 5861 5862 5863 5864 5864 5865 5865 5865 5865 5865 5865 5865 5865
5737 5741 5748 5754 5758 5763 5768 5773 5777 5781 5786 5791 5795 5799 5803 5807 5811 5815 5819 5822 5825 5829 5832 5834 5837 5839 5841 5844 5846 5848 5850 5852 5853 5855 5856 5857 5858 5859 5860 5861 5861 5862 5862 5862 5862 5862 5862 5862 5861
5727 5733 5740 5744 5748 5753 5758 5763 5767 5772 5778 5783 5788 5792 5796 5800 5804 5808 5813 5816 5820 5823 5826 5829 5832 5834 5837 5839 5841 5843 5846 5848 5849 5851 5852 5854 5855 5856 5857 5857 5858 5858 5859 5859 5859 5858 5858 5858 5858
5719 5724 5729 5734 5739 5744 5748 5753 5758 5763 5770 5774 5779 5783 5788 5792 5797 5801 5806 5810 5813 5817 5820 5823 5826 5829 5831 5834 5836 5839 5841 5843 5845 5846 5848 5850 5851 5852 5853 5854 5854 5855 5855 5855 5855 5855 5855 5854 5854
5709 5715 5719 5723 5728 5733 5738 5742 5748 5754 5760 5764 5769 5774 5779 5784 5789 5794 5798 5802 5806 5810 5814 5817 5820 5823 5825 5828 5831 5833 5835 5838 5840 5841 5843 5845 5846 5847 5848 5849 5850 5850 5851 5851 5851 5851 5851 5850 5850
5700 5705 5709 5713 5718 5723 5728 5732 5737 5744 5749 5755 5760 5766 5771 5776 5781 5786 5791 5795 5799 5804 5807 5811 5814 5816 5819 5822 5825 5828 5830 5832 5834 5836 5838 5840 5841 5842 5844 5845 5845 5846 5846 5846 5847 5846 5846 5846 5845
5691 5695 5699 5704 5708 5712 5717 5722 5728 5734 5739 5745 5751 5757 5762 5767 5773 5778 5783 5788 5792 5796 5800 5804 5807 5810 5813 5816 5819 5822 5824 5826 5829 5831 5832 5834 5836 5837 5838 5839 5840 5841 5841 5841 5842 5842 5841 5841 5840
5683 5686 5690 5695 5699 5703 5708 5712 5719 5723 5728 5735 5742 5747 5753 5759 5764 5770 5775 5780 5784 5788 5793 5797 5800 5803 5807 5810 5813 5816 5818 5820 5822 5825 5826 5828 5830 5831 5832 5833 5834 5835 5836 5836 5836 5836 5836 5836 5835
5674 5677 5682 5687 5691 5694 5697 5702 5709 5713 5718 5725 5732 5738 5743 5749 5755 5761 5766 5771 5776 5781 5785 5789 5793 5797 5800 5803 5806 5809 5811 5814 5816 5818 5820 5822 5823 5825 5826 5827 5828 5829 5830 5830 5830 5830 5830 5830 5829
5668 5671 5675 5680 5683 5686 5689 5694 5700 5704 5709 5715 5722 5728 5733 5740 5746 5752 5757 5763 5767 5772 5777 5781 5785 5789 5792 5795 5798 5801 5804 5807 5809 5811 5813 5815 5817 5818 5820 5821 5822 5822 5823 5824 5824 5824 5824 5824 5823
5662 5665 5669 5673 5676 5679 5681 5685 5691 5695 5699 5705 5712 5718 5725 5731 5736 5742 5748 5754 5759 5764 5769 5773 5777 5781 5784 5788 5791 5794 5797 5799 5802 5804 5806 5808 5810 5811 5813 5814 5815 5816 5816 5817 5817 5817 5817 5817 5816
5655 5658 5662 5666 5669 5672 5674 5678 5683 5687 5691 5696 5702 5708 5715 5721 5727 5733 5739 5745 5750 5755 5760 5765 5769 5773 5777 5781 5784 5786 5789 5792 5794 5796 5798 5800 5802 5803 5805 5806 5807 5808 5809 5810 5810 5810 5810 5810 5809
5649 5653 5656 5660 5663 5665 5668 5671 5676 5679 5683 5687 5693 5699 5705 5711 5717 5723 5729 5735 5741 5746 5751 5756 5761 5765 5769 5772 5775 5778 5781 5783 5786 5789 5790 5792 5794 5796 5797 5799 5800 5801 5802 5802 5802 5803 5803 5802 5802
5644 5647 5650 5653 5656 5658 5661 5663 5669 5673 5676 5680 5685 5691 5696 5702 5708 5714 5720 5726 5732 5737 5742 5747 5751 5756 5759 5763 5766 5770 5773 5775 5778 5780 5782 5784 5786 5788 5789 5791 5792 5793 5794 5794 5794 5795 5794 5794 5794
5639 5642 5645 5647 5649 5651 5654 5656 5662 5665 5668 5673 5677 5682 5688 5693 5699 5705 5710 5716 5722 5727 5732 5737 5742 5746 5750 5754 5758 5761 5764 5766 5769 5771 5774 5776 5777 5779 5781 5782 5783 5784 5785 5786 5786 5786 5786 5786 5785
5634 5637 5639 5641 5642 5644 5648 5650 5654 5658 5662 5666 5670 5674 5679 5684 5690 5695 5701 5707 5712 5717 5722 5727 5732 5737 5741 5745 5748 5752 5755 5757 5760 5763 5765 5767 5768 5770 5772 5773 5774 5775 5776 5777 5777 5777 5777 5777 5776
5629 5632 5633 5634 5635 5638 5642 5644 5648 5652 5656 5659 5663 5666 5670 5676 5681 5686 5691 5697 5702 5708 5713 5718 5722 5727 5732 5735 5739 5742 5745 5748 5751 5754 5756 5758 5760 5762 5763 5764 5765 5766 5767 5768 5768 5769 5768 5768 5767
5624 5627 5629 5630 5631 5634 5636 5638 5644 5646 5650 5653 5656 5659 5662 5667 5671 5677 5682 5687 5692 5697 5702 5707 5712 5717 5721 5725 5729 5733 5736 5739 5741 5744 5746 5749 5751 5752 5754 5755 5756 5757 5758 5759 5759 5759 5759 5759 5758
5620 5621 5624 5625 5626 5628 5629 5633 5637 5641 5644 5647 5649 5652 5656 5660 5664 5668 5673 5677 5682 5687 5692 5697 5702 5707 5711 5715 5719 5723 5726 5729 5732 5734 5737 5739 5741 5742 5744 5746 5747 5748 5748 5749 5750 5750 5750 5749 5748
5617 5618 5620 5620 5620 5621 5624 5627 5631 5634 5637 5640 5643 5646 5649 5652 5656 5660 5664 5668 5672 5676 5681 5686 5690 5695 5700 5704 5708 5712 5715 5718 5721 5724 5726 5729 5730 5732 5734 5736 5737 5738 5738 5739 5740 5740 5740 5739 5738
5613 5615 5615 5615 5616 5617 5618 5625 5626 5628 5630 5633 5636 5638 5641 5644 5648 5652 5656 5660 5663 5667 5671 5675 5680 5684 5689 5693 5697 5701 5704 5707 5710 5713 5716 5718 5720 5722 5724 5725 5726 5727 5728 5729 5729 5729 5729 5729 5728
5609 5610 5611 5612 5613 5613 5614 5621 5620 5622 5623 5626 5628 5631 5634 5637 5640 5644 5647 5650 5654 5657 5661 5665 5670 5674 5678 5682 5686 5689 5692 5696 5699 5702 5705 5707 5710 5712 5713 5715 5716 5717 5718 5718 5719 5719 5719 5718 5718